User: anonymous   Login
Location: Columbia
(38.9520°N, 92.3340°W)
Time: 12:36:18
(UTC-05:00)
Language:

Cosmos 1633 - Orbit

View from above orbital plane
View from above orbital plane
View from above satellite
View from above satellite

Ground track
Ground track

The orbit data is extracted from the following two-line orbital elements,

1 15592U 85020A   18113.33104876  .00001444  00000-0  49192-4 0  9995
2 15592  82.5404   8.3416 0013969 153.0684 207.1284 15.29447684811682
Epoch (UTC): 23 April 2018 07:56:42
Eccentricity: 0.0013969
inclination: 82.5404°
perigee height: 468 km
apogee height: 487 km
right ascension of ascending node: 8.3416°
argument of perigee: 153.0684°
revolutions per day: 15.29447684
mean anomaly at epoch: 207.1284°
orbit number at epoch: 81168

The dashed part of the orbit path shows where the satellite is in the earth's shadow,  

DLR